STARLINK-3777, 52294

Orbit data source: Space-Track

STARLINK-3777, 52294 is a payload satellite owned by SpaceX/Seattle (US) in LEO that was launched on Thu, 21 Apr 2022 UTC via an FALCON 9 launch vehicle from the Air Force Eastern Test Range (AFETR). Payload-class satellites include a variety of spacecraft equipped with specific instruments for various scientific and technological missions. These include communications satellites like Starlink; space stations such as the ISS; scientific satellites like the Hubble; Earth observation satellites from companies like Planet Labs, Umbra, and HawkEye 360; GPS; miniature CubeSats for education and research; and military/defense satellites.

Loading next visibility...
Identifier
52294, 2022-041AK
Orbit
LEO
Country
Flag of USUS
Related business
Manufacturer
SpaceX/Seattle
Mission
Operational Commercial Communications
Bus & Motor
STARLINK, Unknown motor
Mass
297 kg wet, ~275 kg dry
Launch date (UTC)
2022-04-21 (4 years ago)
Launch vehicle
FALCON 9
Launch site
Air Force Eastern Test Range (AFETR)
Object type
Payload
Rocket body
Debris
Shape & HBR
Box + 1 Pan, 10.1 m
Radar Cross Section
11.087 m², Large (>1 m²)

Expand to show TLE details & history
Last TLE update: 1 day ago

TLE from 1 day ago
0 STARLINK-3777
1 52294U 22041AK  26206.25677597  .00001868  00000-0  68107-4 0  9994
2 52294  53.1603 199.0959 0001276  82.7257 277.3890 15.33552640235304
Epoch: 2026-07-25T06:09Z
TLE epoch observation values (Epoch: 2026-07-25T06:09:45.443Z)
Latitude
-0.00006°
Longitude
163.68485°
Altitude
466.012 km
Speed
7.635 km/s
True Right ascension
13h 16m 23s
True Declination
0° 00' 00"
Sunlit
Object was in daylight at epoch
Visualization orbit readout
Latitude
Unknown
Longitude
Unknown
Altitude
Unknown
Speed
Unknown
Apparent Right ascension
Unknown
Apparent Declination
Unknown
Sunlit
N/A
Visualization observer readout
Local Sidereal Time
19:26:57
Azimuth
Unknown
Elevation
Unknown
Doppler factor
Unknown
Orbital elements
Apogee altitude
466.353 km
Perigee altitude
464.606 km
Semi-major axis
6,843.617 km
Eccentricity
0.00013
Inclination
53.1603°
RAAN
199.0959°
Arg. of periapsis
82.7257°
True anomaly
277.3745°
Mean anomaly
277.389°
Eccentric anomaly
277.38175°
Mean motion
3.83367 °/min
Orbital period
93.9 mins
BSTAR
0.000068107
Loading maneuver chart data...
Computing Atmospheric mass density...
Loading historical data...
Loading historical data...
Loading historical data...
Loading historical data...
Loading historical data...
Loading historical data...
Loading historical data...

Documentation

Showing up to 5 results
|